Location: Colorado Springs
(38.8340°N, 104.8210°W)
Time: 16:23:24
(UTC-06:00)

N. Korean satellite - Pass Details

Date: 07 October 2017
Orbit: 459 x 517 km, 97.2° (Epoch: 23 October)

Event Time Altitude Azimuth Distance (km) Brightness Sun altitude
Rises 20:07:07 0° 210° (SSW) 2,583 10.5 -19.3°
Reaches altitude 10° 20:10:10 10° 238° (WSW) 1,692 10.0 -19.9°
Maximum altitude 20:11:56 13° 267° (W) 1,504 10.1 -20.2°
Drops below altitude 10° 20:13:41 10° 296° (WNW) 1,683 10.4 -20.6°
Sets 20:16:43 0° 325° (NW) 2,555 10.9 -21.1°
